Location: Clairmont
(55.2667°N, 118.8000°W)
Time: 14:52:07
(UTC+00:00)

Envisat - Pass Details

Date: 05 November 2020
Orbit: 764 x 766 km, 98.1° (Epoch: 03 December)

Event Time Altitude Azimuth Distance (km) Brightness Sun altitude
Rises 13:02:56 0° 21° (NNE) 3,247 6.5 -18.1°
Reaches altitude 10° 13:05:35 10° 33° (NNE) 2,315 5.9 -17.7°
Maximum altitude 13:09:55 27° 92° (E) 1,434 5.2 -17.1°
Drops below altitude 10° 13:14:13 10° 150° (SSE) 2,300 5.9 -16.5°
Sets 13:16:50 0° 162° (SSE) 3,221 6.5 -16.1°
